This is the latest recevied weather packets stored in our database for station/object KN6CRX. If no packets are shown the sender has not sent any weather packets the latest 10 day(s).
| Time | Temp. | Humidity | Pressure | Rain* | Wind** | Luminosity | Snow |
|---|---|---|---|---|---|---|---|
| 1787801434 | 22.78° C | 37% | 1022.3 hPa | 0 mm | - | 0 W/m² | - |
| 1787801133 | 22.78° C | 37% | 1022.3 hPa | 0 mm | - | 0 W/m² | - |
| 1787800832 | 23.33° C | 37% | 1022.2 hPa | 0 mm | - | 0 W/m² | - |
| 1787800528 | 22.78° C | 38% | 1022.1 hPa | 0 mm | - | 0 W/m² | - |
| 1787800223 | 22.78° C | 40% | 1022.1 hPa | 0 mm | - | 0 W/m² | - |
| 1787799922 | 22.78° C | 40% | 1022.1 hPa | 0 mm | - | 0 W/m² | - |
| 1787799621 | 22.78° C | 40% | 1022.1 hPa | 0 mm | - | 0 W/m² | - |
| 1787799314 | 23.33° C | 39% | 1022.1 hPa | 0 mm | - | 0 W/m² | - |
| 1787799013 | 23.33° C | 38% | 1021.8 hPa | 0 mm | - | 0 W/m² | - |
| 1787798712 | 23.33° C | 37% | 1022.1 hPa | 0 mm | - | 0 W/m² | - |
| 1787798407 | 23.89° C | 37% | 1021.7 hPa | 0 mm | - | 0 W/m² | - |
| 1787798103 | 23.89° C | 36% | 1022 hPa | 0 mm | - | 0 W/m² | - |
| 1787797800 | 24.44° C | 35% | 1021.8 hPa | 0 mm | - | 0 W/m² | - |
| 1787797496 | 25.56° C | 32% | 1021.6 hPa | 0 mm | - | 1 W/m² | - |
| 1787797191 | 25.56° C | 31% | 1021.8 hPa | 0 mm | - | 1 W/m² | - |
| 1787796886 | 26.11° C | 30% | 1022 hPa | 0 mm | - | 2 W/m² | - |
| 1787796586 | 26.11° C | 29% | 1021.6 hPa | 0 mm | - | 3 W/m² | - |
| 1787796282 | 26.67° C | 30% | 1021.4 hPa | 0 mm | - | 5 W/m² | - |
| 1787795979 | 26.67° C | 29% | 1021.5 hPa | 0 mm | - | 7 W/m² | - |
| 1787795674 | 26.11° C | 29% | 1021.6 hPa | 0 mm | - | 9 W/m² | - |
| 1787795370 | 26.11° C | 30% | 1021.5 hPa | 0 mm | - | 11 W/m² | - |
| 1787795068 | 26.11° C | 31% | 1021.7 hPa | 0 mm | - | 13 W/m² | - |
| 1787794762 | 26.11° C | 33% | 1021.5 hPa | 0 mm | - | 17 W/m² | - |
| 1787794459 | 26.67° C | 33% | 1021.6 hPa | 0 mm | - | 22 W/m² | - |
| 1787794159 | 26.67° C | 33% | 1021.8 hPa | 0 mm | - | 38 W/m² | - |
* Rain latest hour (hover to see other rain measurements)
** Current wind speed in m/s (hover to see current wind gust speed)